UAE295 OERK-OMAA

Flight info

Callsign UAE295
Flight time N/A
Altitude 29000
Route OTALI DCT SITER M440 KUTNA Y214 RIBOT/N0485F410 M550 GOLGU DCT BOPIT M318 ATUDO
Aircraft A359/H-SDE2E3GHIJ3J4J5LM1ORWXY/LB1D1

Departure

Time 2026-04-28 23:45
Airport King Khalid International Airport (OERK)

Arrival

Time N/A
Airport Zayed International Airport (OMAA)
Time Latitude Longitude Altitude Speed Heading
2026-04-28 23:45 24.82221 46.76283 6940 ft 282 kts 97°
2026-04-28 23:45 24.82311 46.78449 7466 ft 288 kts 82°
2026-04-28 23:46 24.82645 46.80643 7955 ft 293 kts 80°
2026-04-28 23:46 24.83330 46.82773 8444 ft 299 kts 60°
2026-04-28 23:46 24.84523 46.84670 8953 ft 304 kts 53°
2026-04-28 23:46 24.85826 46.86530 9471 ft 309 kts 53°
2026-04-28 23:47 24.87147 46.88421 9982 ft 314 kts 53°
2026-04-28 23:47 24.88250 46.90526 10291 ft 323 kts 70°
2026-04-28 23:47 24.88665 46.92980 10473 ft 332 kts 95°
2026-04-28 23:47 24.88305 46.95518 10704 ft 341 kts 107°
2026-04-28 23:48 24.87589 46.98049 10904 ft 351 kts 113°
2026-04-28 23:48 24.86683 47.00585 11126 ft 361 kts 115°
2026-04-28 23:48 24.85697 47.03154 11448 ft 367 kts 116°
2026-04-28 23:48 24.84697 47.05756 11840 ft 371 kts 115°
2026-04-28 23:49 24.83710 47.08392 12220 ft 375 kts 115°
2026-04-28 23:49 24.82736 47.11071 12614 ft 378 kts 114°
2026-04-28 23:49 24.81776 47.13772 13019 ft 381 kts 114°
2026-04-28 23:49 24.80821 47.16496 13405 ft 384 kts 114°
2026-04-28 23:50 24.79855 47.19265 13825 ft 386 kts 114°
2026-04-28 23:50 24.78905 47.21994 14192 ft 388 kts 114°
2026-04-28 23:50 24.77921 47.24818 14532 ft 392 kts 114°
2026-04-28 23:50 24.76938 47.27632 14853 ft 395 kts 114°
2026-04-28 23:51 24.75960 47.30424 15209 ft 398 kts 114°
2026-04-28 23:51 24.74959 47.33277 15560 ft 401 kts 114°
2026-04-28 23:51 24.73950 47.36151 15894 ft 404 kts 114°
2026-04-28 23:51 24.72935 47.39037 16280 ft 406 kts 115°
2026-04-28 23:52 24.71913 47.41945 16646 ft 409 kts 115°
2026-04-28 23:52 24.70881 47.44877 16989 ft 412 kts 115°
2026-04-28 23:52 24.69844 47.47822 17334 ft 415 kts 115°
2026-04-28 23:52 24.68796 47.50796 17666 ft 418 kts 115°
2026-04-28 23:53 24.67826 47.53546 17999 ft 421 kts 115°
2026-04-28 23:53 24.66757 47.56573 18319 ft 424 kts 115°
2026-04-28 23:53 24.65688 47.59602 18622 ft 426 kts 115°
2026-04-28 23:53 24.64611 47.62648 18954 ft 428 kts 115°
2026-04-28 23:54 24.63531 47.65703 19259 ft 430 kts 115°
2026-04-28 23:54 24.62441 47.68782 19552 ft 433 kts 115°
2026-04-28 23:54 24.61349 47.71868 19876 ft 434 kts 115°
2026-04-28 23:54 24.60249 47.74972 20166 ft 437 kts 116°
2026-04-28 23:55 24.59518 47.77033 20341 ft 438 kts 116°
2026-04-28 23:55 24.58031 47.81222 20715 ft 442 kts 116°
2026-04-28 23:55 24.57289 47.83309 20907 ft 444 kts 116°
2026-04-28 23:55 24.56165 47.86470 21206 ft 446 kts 116°
2026-04-28 23:56 24.55033 47.89653 21500 ft 448 kts 116°
2026-04-28 23:56 24.53898 47.92842 21776 ft 450 kts 116°
2026-04-28 23:56 24.52757 47.96046 22038 ft 452 kts 116°
2026-04-28 23:56 24.51606 47.99272 22314 ft 454 kts 116°
2026-04-28 23:57 24.50452 48.02507 22568 ft 457 kts 116°
2026-04-28 23:57 24.49290 48.05761 22839 ft 458 kts 116°
2026-04-28 23:57 24.48125 48.09023 23100 ft 460 kts 116°
2026-04-28 23:57 24.46951 48.12305 23375 ft 462 kts 116°
2026-04-28 23:58 24.45773 48.15594 23588 ft 464 kts 116°
2026-04-28 23:58 24.44589 48.18901 23781 ft 467 kts 116°
2026-04-28 23:58 24.43397 48.22225 23976 ft 469 kts 116°
2026-04-28 23:58 24.42200 48.25560 24183 ft 471 kts 116°
2026-04-28 23:59 24.40996 48.28915 24373 ft 473 kts 116°
2026-04-28 23:59 24.39786 48.32281 24572 ft 476 kts 116°
2026-04-28 23:59 24.38568 48.35669 24758 ft 478 kts 116°
2026-04-28 23:59 24.37346 48.39065 24957 ft 480 kts 116°
2026-04-29 00:00 24.36117 48.42476 25145 ft 482 kts 116°
2026-04-29 00:00 24.34883 48.45898 25319 ft 485 kts 116°
2026-04-29 00:00 24.33637 48.49352 25523 ft 487 kts 116°
2026-04-29 00:00 24.32389 48.52809 25709 ft 489 kts 116°
2026-04-29 00:01 24.31134 48.56279 25903 ft 491 kts 116°
2026-04-29 00:01 24.29871 48.59772 26115 ft 493 kts 116°
2026-04-29 00:01 24.28604 48.63271 26293 ft 496 kts 116°
2026-04-29 00:01 24.27326 48.66797 26485 ft 498 kts 116°
2026-04-29 00:02 24.26045 48.70327 26678 ft 500 kts 115°
2026-04-29 00:02 24.24759 48.73872 26900 ft 501 kts 115°
2026-04-29 00:02 24.23465 48.77434 27085 ft 504 kts 115°
2026-04-29 00:02 24.22166 48.81010 27274 ft 507 kts 115°
2026-04-29 00:03 24.20858 48.84604 27448 ft 509 kts 115°
2026-04-29 00:03 24.19561 48.88165 27647 ft 511 kts 115°
2026-04-29 00:03 24.18240 48.91791 27843 ft 514 kts 115°
2026-04-29 00:03 24.16913 48.95430 28041 ft 516 kts 115°
2026-04-29 00:04 24.15576 48.99090 28231 ft 518 kts 115°
2026-04-29 00:04 24.14234 49.02763 28420 ft 521 kts 115°
2026-04-29 00:04 24.12882 49.06457 28595 ft 523 kts 115°
2026-04-29 00:04 24.11527 49.10162 28760 ft 526 kts 115°
2026-04-29 00:05 24.10151 49.13914 28803 ft 538 kts 115°
2026-04-29 00:05 24.08742 49.17746 28800 ft 545 kts 115°
2026-04-29 00:05 24.05913 49.25455 28793 ft 546 kts 115°
2026-04-29 00:06 24.03086 49.33148 28793 ft 545 kts 115°
2026-04-29 00:06 24.00255 49.40833 28782 ft 545 kts 115°
2026-04-29 00:07 23.97418 49.48520 28791 ft 545 kts 115°
2026-04-29 00:07 23.94579 49.56196 28782 ft 545 kts 115°
2026-04-29 00:08 23.91732 49.63878 28784 ft 545 kts 115°
2026-04-29 00:08 23.88882 49.71558 28782 ft 545 kts 115°
2026-04-29 00:09 23.86030 49.79226 28780 ft 545 kts 115°
2026-04-29 00:09 23.83191 49.86847 28780 ft 545 kts 115°
2026-04-29 00:10 23.80315 49.94557 28780 ft 545 kts 115°
2026-04-29 00:10 23.77471 50.02165 28778 ft 544 kts 115°
2026-04-29 00:11 23.74607 50.09814 28777 ft 544 kts 115°
2026-04-29 00:12 23.70314 50.21253 28782 ft 542 kts 115°
2026-04-29 00:12 23.67452 50.28861 28770 ft 542 kts 115°
2026-04-29 00:13 23.64588 50.36464 28765 ft 542 kts 115°
2026-04-29 00:13 23.61721 50.44061 28779 ft 542 kts 115°
2026-04-29 00:14 23.58847 50.51660 28774 ft 547 kts 115°
2026-04-29 00:14 23.57379 50.55530 28764 ft 558 kts 115°
2026-04-29 00:14 23.55881 50.59476 28768 ft 567 kts 115°
2026-04-29 00:15 23.52862 50.67431 28763 ft 568 kts 115°
2026-04-29 00:15 23.49840 50.75388 28763 ft 568 kts 115°
2026-04-29 00:16 23.46815 50.83339 28751 ft 568 kts 115°
2026-04-29 00:16 23.43787 50.91277 28767 ft 567 kts 115°
2026-04-29 00:17 23.40763 50.99189 28763 ft 566 kts 115°
2026-04-29 00:17 23.37735 51.07098 28766 ft 566 kts 115°
2026-04-29 00:18 23.34703 51.15007 28761 ft 566 kts 115°
2026-04-29 00:18 23.31686 51.22860 28752 ft 565 kts 115°
2026-04-29 00:19 23.28654 51.30738 28765 ft 564 kts 115°
2026-04-29 00:19 23.25620 51.38609 28761 ft 564 kts 115°
2026-04-29 00:20 23.23027 51.46657 28760 ft 567 kts 103°
2026-04-29 00:20 23.21921 51.55161 28761 ft 569 kts 97°
2026-04-29 00:21 23.21221 51.63733 28760 ft 569 kts 95°
2026-04-29 00:21 23.20565 51.72297 28760 ft 568 kts 96°
2026-04-29 00:22 23.19863 51.80834 28759 ft 567 kts 96°
2026-04-29 00:22 23.19129 51.89366 28758 ft 567 kts 96°
2026-04-29 00:23 23.18383 51.97901 28758 ft 567 kts 96°
2026-04-29 00:23 23.17635 52.06430 28758 ft 567 kts 96°
2026-04-29 00:24 23.16883 52.14967 28756 ft 568 kts 96°
2026-04-29 00:24 23.16126 52.23507 28754 ft 568 kts 96°
2026-04-29 00:25 23.15371 52.31983 28758 ft 567 kts 96°
2026-04-29 00:25 23.15141 52.40541 28759 ft 568 kts 83°
2026-04-29 00:26 23.17057 52.48833 28757 ft 566 kts 70°
2026-04-29 00:26 23.20458 52.56507 28757 ft 564 kts 58°
2026-04-29 00:27 23.24406 52.63879 28754 ft 564 kts 57°
2026-04-29 00:27 23.28399 52.71223 28761 ft 564 kts 57°
2026-04-29 00:28 23.32360 52.78599 28761 ft 564 kts 57°
2026-04-29 00:28 23.36293 52.85989 28761 ft 564 kts 58°
2026-04-29 00:29 23.40191 52.93338 28763 ft 564 kts 58°
2026-04-29 00:29 23.44112 53.00740 28762 ft 564 kts 58°
2026-04-29 00:30 23.48028 53.08139 28766 ft 564 kts 58°
2026-04-29 00:30 23.51943 53.15548 28765 ft 564 kts 58°
2026-04-29 00:31 23.55856 53.22961 28767 ft 564 kts 58°
2026-04-29 00:31 23.59764 53.30379 28766 ft 564 kts 58°